Regional Weather Roundup
Issued by NWS Upton, NY

Current Version | Previous Version | Graphics & Text | Print | Product List | Glossary Off
Versions: 1 2 3 4 5 6 7 8 9 10 11 12 13 14 15 16 17 18 19 20 21 22 23 24 25 26 27 28 29 30 31 32 33 34 35 36 37 38 39 40 41 42 43 44 45 46 47 48 49 50

000
ASUS41 KOKX 231408
RWROKX

REGIONAL WEATHER ROUNDUP
NATIONAL WEATHER SERVICE NEW YORK NY
1000 AM EDT MON OCT 23 2017

NOTE: "FAIR" INDICATES FEW OR NO CLOUDS BELOW 12,000 FEET WITH NO
SIGNIFICANT WEATHER AND/OR OBSTRUCTIONS TO VISIBILITY.

NYZ071-072-176-178-NJZ106-104-231500-
NEW YORK CITY METRO AREA

CITY           SKY/WX    TMP DP  RH WIND       PRES   REMARKS
Central Park   PTSUNNY   68  62  81 S7        30.31F
Bronx Bot Gard   N/A     66  61  82 S2        30.30F
LaGuardia APRT PTSUNNY   68  62  81 S7        30.28F
Kennedy INTL   PTSUNNY   70  64  83 SE12      30.30F
Breezy Point     N/A     66 N/A N/A S5          N/A
Newark/Liberty PTSUNNY   68  63  84 VRB3      30.28F
Teterboro      CLOUDY    67  60  78 E3        30.28F
$$

NYZ177-179-078>081-231500-
LONG ISLAND NEW YORK

CITY           SKY/WX    TMP DP  RH WIND       PRES   REMARKS
Jones Beach      N/A     66 N/A N/A S10         N/A
Matinecock PT    N/A     64 N/A N/A NE3         N/A
Farmingdale    SUNNY     68  63  84 S12       30.30F
MacArthur/ISP  PTSUNNY   68  64  87 SE8       30.31F
Shirley        MOSUNNY   70  64  81 SE6       30.32F
Mt Sinai Harb    N/A     64 N/A N/A S8          N/A
Westhampton    PTSUNNY   67  62  84 S8        30.34F
East Hampton   PTSUNNY   64  62  94 SE5       30.33F
Montauk          N/A     65  64  97 VRB5      30.35F
$$

NYZ052-065-067-231500-
HUDSON VALLEY

CITY           SKY/WX    TMP DP  RH WIND       PRES   REMARKS
White Plains   PTSUNNY   63  61  93 SE5       30.29F FOG
Larchmont Harb   N/A     63 N/A N/A NE3         N/A
Croton On Huds   N/A     63 N/A N/A MISG        N/A
Newburgh       PTSUNNY   63  61  94 SE8       30.30F
Montgomery     CLOUDY    62  56  80 CALM      30.28F
Poughkeepsie   SUNNY     65  58  78 S5        30.28F
Albany         PTSUNNY   62  54  74 S10       30.27F
$$

NJZ001-105-106-008-010-013-015-019>022-104-231500-
NEW JERSEY

CITY           SKY/WX    TMP DP  RH WIND       PRES   REMARKS
Newark/Liberty PTSUNNY   68  63  84 VRB3      30.28F
Teterboro      CLOUDY    67  60  78 E3        30.28F
Caldwell       CLOUDY    65  62  90 NE3       30.29F
Somerville     CLOUDY    65  63  93 S6        30.26F
Linden         FAIR      68  63  84 S5        30.28F
Perth Amboy      N/A     64 N/A N/A E6          N/A
Sussex         CLOUDY    59  55  87 CALM      30.28F
Andover          N/A     65  61  87 VRB6      30.28F
Trenton        CLOUDY    63  62  97 SE6       30.27F
Millville      CLOUDY    70  68  93 SE7       30.26F
Atlantic City  PTSUNNY   71  65  81 SE8       30.27F
Wrightstown    SUNNY     66  66 100 S7        30.25F
Toms River       N/A     69  64  84 SE9       30.28F
Belmar         MOSUNNY   69  63  81 SE12      30.29F
$$

PAZ047>061-062-071-231500-
EASTERN PENNSYLVANIA

CITY           SKY/WX    TMP DP  RH WIND       PRES   REMARKS
Philadelphia   CLOUDY    69  62  78 SE7       30.26F
Allentown      CLOUDY    64  59  83 SE7       30.27F
Scranton       CLOUDY    61  55  81 CALM      30.24F
$$

CTZ002-004>006-009-010-012-RIZ004-006-007-MAZ004-011-015-231500-
SOUTHERN NEW ENGLAND
 IN CT

CITY           SKY/WX    TMP DP  RH WIND       PRES   REMARKS
Bradley INTL   CLOUDY    56  52  86 CALM      30.34F
Hartford       MOSUNNY   58  55  90 CALM      30.33F
Danbury        CLOUDY    64  60  87 SE7       30.32F
Wtrbury/Oxford CLOUDY    61  60  97 S6        30.33F FOG
Norwalk Harbor   N/A     63 N/A N/A E9          N/A
Bridgeport     CLOUDY    65  61  87 NE6       30.32F
Meriden        PTSUNNY   60  56  86 CALM      30.33F
New Haven      PTSUNNY   65  62  90 E7        30.33S
Chester        CLOUDY    63  63 100 CALM      30.34F FOG
Groton         PTSUNNY   63  61  93 E8        30.34F FOG
Wilimantic     CLOUDY    55  55 100 CALM      30.36F

 IN RI

CITY           SKY/WX    TMP DP  RH WIND       PRES   REMARKS
Providence     FOG       57  57 100 CALM      30.38S VSB 1/4
Block Island   MOSUNNY   66  63  90 S9        30.35F
Westerly       FOG       60  59  96 NE3       30.36F VSB 1
 IN MA

CITY           SKY/WX    TMP DP  RH WIND       PRES   REMARKS
Boston         FOG       55  55 100 E5        30.37F VSB 1/8
Worcester      FOG       53  52  96 S6        30.36F VSB<1/4
Westfield      CLOUDY    52  51  97 CALM      30.34F
Provincetown   CLOUDY    60  60 100 SE6       30.38F
Nantucket      SUNNY     63  62  97 SE10      30.38F
$$

ANZ330-335-338-340-345-350-353-355-231500-
COASTAL MARINE OBSERVATIONS


STATION/POSITION TIME  SKY/WX   TEMP    WIND        PRES    VSBY  WAVE
                                AIR SEA DIR/SP/G                  HT/PER
                 (UTC)          (F)     (DEG/KT/KT) (MB)    (MI)  (FT/S)
NY HARB ENTRANCE 1250            66 64  150/ 12/ 14 1025.1          2/ 9
20 S FIRE ISLAND 1250            65 64  160/ 10/ 10 1026.6          2/ 8
GREAT SOUTH BAY  1330            64 62  140/  8/ 10   N/A
15 E BARNEGAT LI NOT AVBL
HUDSON CANYON    1250            66 64  130/ 10/ 12 1026.1          2/ 9
KINGS POINT      1330            65 65  210/  5/  6 1026.8
EXECUTION ROCKS  1330            65      50/  2/  4   N/A
WESTERN LI SOUND 1300            65      80/  6/  8   N/A           0
CENTRAL LI SOUND NOT AVBL
EASTERN LI SOUND NOT AVBL
ROBBINS REEF     1348            65     150/  7/  8 1026.1
$$


>>>>>>>>>>>>>>>>>>>>>>>>>>>> KEY <<<<<<<<<<<<<<<<<<<<<<<<<<<
>                                                          <
>     SKY/WX - Sky Condition/Present Weather               <
>     TMP    - Temperature in Fahrenheit                   <
>     DP     - Dew Point in Fahrenheit                     <
>     RH     - Relative Humidity in Percent                <
>     WIND   - Direction (from) and Speed in MPH           <
>     PRES   - Mean Sea Level Pressure (inches of Hg)      <
>     WCI    - Wind Chill Index                            <
>     VSB    - VISIBILITY IN MILES                         <
>     HX     - HEAT INDEX                                  <
>     TC     - TEMPERATURE IN CELSIUS                      <
>     VRB    - VARIABLE WIND DIRECTION                     <
>                                                          <
>>>>>>>>>>>>>>>>>>>>>>>>>>>> KEY <<<<<<<<<<<<<<<<<<<<<<<<<<<



USA.gov is the U.S. government's official web portal to all federal, state and local government web resources and services.